Change the Weather History Date:

Monday, November 26, 2012

  Actual Average Record
Temperature  
Mean Temperature 56 °F -  
Max Temperature 67 °F 58 °F 69 °F (2008)
Min Temperature 44 °F 43 °F 30 °F (2004)
Degree Days  
Heating Degree Days 10    
Growing Degree Days 6 (Base 50)    
Moisture  
Dew Point 48 °F    
Average Humidity 74    
Maximum Humidity 88    
Minimum Humidity 43    
Precipitation  
Precipitation 0.00 in - - ()
Sea Level Pressure  
Sea Level Pressure 30.13 in    
Wind  
Wind Speed 0 mph ()    
Max Wind Speed 5 mph    
Max Gust Speed -    
Visibility 6.2 miles    
Events      
Averages and records for this station are not official NWS values.
T = Trace of Precipitation, MM = Missing Value Source: Averaged Metar Reports

Daily Weather History Graph

Daily Weather History Graph

Search for Another Location

Airport or City:

Trip Planner

Search our weather history database for the weather conditions in past years. The results will help you decide how hot, cold, wet, or windy it might be!

Date:

Astronomy

Nov. 26, 2012 Rise Set
Actual Time 7:27 AM EET 5:17 PM EET
Civil Twilight 6:58 AM EET 5:45 PM EET
Nautical Twilight 6:26 AM EET 6:18 PM EET
Astronomical Twilight 5:54 AM EET 6:49 PM EET
Moon 3:57 PM EET (11/26) 5:21 AM EET (11/26)
Length of Visible Light 10h 47m
Length of Day
9h 50m
Waxing Gibbous, 96% of the Moon is Illuminated
Nov 26
Waxing Gibbous
Nov 28
Full
Dec 6
Last Quarter
Dec 13
New
Dec 20
First Quarter

Hourly Weather History & Observations

Time (EET) Temp. Dew Point Humidity Pressure Visibility Wind Dir Wind Speed Gust Speed Precip Events Conditions
12:50 AM 51.8 °F 46.4 °F 82% 30.15 in - Calm Calm - N/A   Clear
1:50 AM 51.8 °F 46.4 °F 82% 30.15 in - Calm Calm - N/A   Clear
2:00 AM 51 °F 46 °F 77% 30.16 in 6 mi Calm Calm - -  
4:50 AM 46.4 °F 42.8 °F 87% 30.15 in - Calm Calm - N/A   Clear
5:20 AM 46.4 °F 42.8 °F 87% 30.15 in - Calm Calm - N/A   Clear
5:50 AM 46.4 °F 42.8 °F 87% 30.12 in - Calm Calm - N/A   Clear
6:20 AM 46.4 °F 42.8 °F 87% 30.12 in - Calm Calm - N/A   Clear
6:50 AM 46.4 °F 42.8 °F 87% 30.15 in - Calm Calm - N/A   Clear
7:20 AM 50.0 °F 46.4 °F 87% 30.15 in - Calm Calm - N/A   Clear
7:50 AM 44.6 °F 41.0 °F 87% 30.15 in - Calm Calm - N/A   Clear
8:00 AM 45 °F 42 °F 83% 30.17 in 6 mi Calm Calm - -   Scattered Clouds
8:20 AM 44.6 °F 41.0 °F 87% 30.15 in - Calm Calm - N/A   Clear
8:50 AM 51.8 °F 48.2 °F 88% 30.18 in - Calm Calm - N/A   Clear
9:20 AM 57.2 °F 50.0 °F 77% 30.18 in - Calm Calm - N/A   Clear
10:20 AM 60.8 °F 50.0 °F 68% 30.18 in - Calm Calm - N/A   Clear
10:50 AM 60.8 °F 50.0 °F 68% 30.18 in - Calm Calm - N/A   Clear
11:20 AM 64.4 °F 50.0 °F 59% 30.18 in - Calm Calm - N/A   Clear
11:50 AM 68.0 °F 51.8 °F 56% 30.15 in - Calm Calm - N/A   Clear
12:20 PM 68.0 °F 51.8 °F 56% 30.15 in - Calm Calm - N/A   Clear
12:50 PM 66.2 °F 50.0 °F 56% 30.12 in 6.2 mi Calm Calm - N/A   Partly Cloudy
1:20 PM 66.2 °F 50.0 °F 56% 30.12 in 6.2 mi Calm Calm - N/A   Partly Cloudy
1:50 PM 68.0 °F 50.0 °F 52% 30.12 in 6.2 mi Calm Calm - N/A   Partly Cloudy
2:00 PM 68 °F 51 °F 43% 30.13 in 6 mi Calm Calm - -   Scattered Clouds
2:20 PM 68.0 °F 50.0 °F 52% 30.12 in 6.2 mi Calm Calm - N/A   Partly Cloudy
2:50 PM 68.0 °F 50.0 °F 52% 30.09 in 6.2 mi Calm Calm - N/A   Partly Cloudy
3:20 PM 68.0 °F 50.0 °F 52% 30.09 in 6.2 mi Calm Calm - N/A   Partly Cloudy
3:50 PM 66.2 °F 51.8 °F 60% 30.09 in 6.2 mi NW 4.6 mph - N/A   Partly Cloudy
4:20 PM 66.2 °F 51.8 °F 60% 30.09 in 6.2 mi NW 4.6 mph - N/A   Partly Cloudy
4:50 PM 62.6 °F 51.8 °F 68% 30.09 in 6.2 mi Calm Calm - N/A   Partly Cloudy
5:20 PM 62.6 °F 51.8 °F 68% 30.09 in 6.2 mi Calm Calm - N/A   Partly Cloudy
6:20 PM 55.4 °F 50.0 °F 82% 30.09 in 6.2 mi Calm Calm - N/A   Partly Cloudy
6:50 PM 55.4 °F 50.0 °F 82% 30.09 in 6.2 mi Calm Calm - N/A   Partly Cloudy
7:20 PM 55.4 °F 50.0 °F 82% 30.09 in 6.2 mi Calm Calm - N/A   Partly Cloudy
7:50 PM 53.6 °F 50.0 °F 88% 30.12 in - Calm Calm - N/A   Clear
8:00 PM 53 °F 49 °F 82% 30.12 in 6 mi Calm Calm - -  
8:50 PM 51.8 °F 48.2 °F 88% 30.12 in - Calm Calm - N/A   Clear
9:20 PM 53.6 °F 50.0 °F 88% 30.12 in - Calm Calm - N/A   Clear
9:50 PM 53.6 °F 50.0 °F 88% 30.12 in - Calm Calm - N/A   Clear
10:50 PM 51.8 °F 48.2 °F 88% 30.12 in - Calm Calm - N/A   Clear
11:20 PM 51.8 °F 48.2 °F 88% 30.12 in - Calm Calm - N/A   Clear